Language: 


Des rapports , des résumés tant et plus, au choix de chacun....


Données statistiques de la station
Quotidien Rapport Janvier 17, 2017 Unités:  Métrique    Anglais   les deux
« Précédent Jour
Suivant Jour »
Quotidien Hebdomadaire Mensuel Annuel Actuel
  Haut: Bas: Moyen:
Température: 1.1 °C -2.3 °C -1.3 °C
Pt de rosée: -0.1 °C -3.1 °C -2.1 °C
Humidité: 98 % 0 % 94 %
Vitesse du vent: 10.8 km/h 0.0 km/h 6.4 km/h
Rafales: 13.7 km/h - -
Vent:- - ENE
Pression: 1038.1 hPa 0.0 hPa -
Précipitation: 0.0 mm    
Historical Graphs
 
 
Données statistiques pour Janvier 17, 2017
Heure Température Point de rosée Pression Vent Vitesse du vent Refales Humidité Pluie (taux horaire)
00:01 -0.5 °C -0.8 °C 1031.0 hPa Calm   5.8 km/h 98 % 0.0 mm
00:06 -0.6 °C -0.9 °C 1031.0 hPa ENE 5.5 km/h 5.8 km/h 98 % 0.0 mm
00:11 -0.7 °C -0.9 °C 1031.0 hPa ENE 5.8 km/h 5.8 km/h 98 % 0.0 mm
00:16 -0.7 °C -0.9 °C 1031.0 hPa ENE 4.0 km/h 6.4 km/h 98 % 0.0 mm
00:21 -0.8 °C -1.1 °C 1031.0 hPa NE 5.5 km/h 6.9 km/h 98 % 0.0 mm
00:26 -0.8 °C -1.1 °C 1031.0 hPa ENE 4.3 km/h 6.9 km/h 98 % 0.0 mm
00:31 -0.9 °C -1.2 °C 1031.0 hPa ENE 4.0 km/h 6.4 km/h 98 % 0.0 mm
00:36 -1.0 °C -1.3 °C 1031.0 hPa ENE 4.0 km/h 6.4 km/h 98 % 0.0 mm
00:41 -1.0 °C -1.3 °C 1031.0 hPa ENE 6.9 km/h 6.9 km/h 98 % 0.0 mm
00:46 -1.1 °C -1.3 °C 1031.0 hPa ENE 3.5 km/h 6.9 km/h 98 % 0.0 mm
00:51 -1.2 °C -1.4 °C 1031.0 hPa Calm   6.9 km/h 98 % 0.0 mm
00:56 -1.3 °C -1.6 °C 1031.0 hPa Calm   5.0 km/h 98 % 0.0 mm
01:01 -1.3 °C -1.6 °C 1031.0 hPa ENE 4.7 km/h 5.5 km/h 98 % 0.0 mm
01:06 -1.3 °C -1.6 °C 1031.0 hPa East 4.0 km/h 5.5 km/h 98 % 0.0 mm
01:11 -1.3 °C -1.6 °C 1031.0 hPa East 4.3 km/h 5.5 km/h 98 % 0.0 mm
01:16 -1.4 °C -1.7 °C 1031.0 hPa ENE 4.3 km/h 6.9 km/h 98 % 0.0 mm
01:21 -1.4 °C -1.7 °C 1031.0 hPa East 5.0 km/h 6.9 km/h 98 % 0.0 mm
01:26 -1.4 °C -1.7 °C 1031.0 hPa Calm   6.1 km/h 98 % 0.0 mm
01:31 -1.4 °C -1.7 °C 1031.0 hPa ENE 5.0 km/h 6.1 km/h 98 % 0.0 mm
01:36 -1.4 °C -1.7 °C 1031.0 hPa ENE 4.7 km/h 5.5 km/h 98 % 0.0 mm
01:41 -1.4 °C -1.7 °C 1031.0 hPa ENE 4.7 km/h 5.8 km/h 98 % 0.0 mm
01:46 -1.4 °C -1.7 °C 1031.0 hPa East 4.0 km/h 6.4 km/h 98 % 0.0 mm
01:51 -1.4 °C -1.7 °C 1031.0 hPa ENE 4.3 km/h 6.4 km/h 98 % 0.0 mm
01:56 -1.6 °C -1.8 °C 1031.0 hPa ENE 4.3 km/h 5.8 km/h 98 % 0.0 mm
02:02 0.0 °C -1.9 °C 0.0 hPa ENE 3.5 km/h 4.7 km/h 0 % 0.0 mm
02:07 -1.8 °C -2.1 °C 1031.0 hPa NE 2.6 km/h 5.0 km/h 98 % 0.0 mm
02:12 -1.9 °C -2.1 °C 1031.0 hPa NE 4.0 km/h 5.0 km/h 98 % 0.0 mm
02:17 -1.9 °C -2.1 °C 1031.0 hPa NE 5.0 km/h 6.1 km/h 98 % 0.0 mm
02:22 -1.9 °C -2.1 °C 1032.1 hPa ENE 5.0 km/h 6.1 km/h 98 % 0.0 mm
02:27 -1.9 °C -2.1 °C 1032.1 hPa East 4.7 km/h 6.4 km/h 98 % 0.0 mm
02:32 -1.9 °C -2.2 °C 1032.1 hPa East 4.0 km/h 6.4 km/h 98 % 0.0 mm
02:37 -1.9 °C -2.2 °C 1032.1 hPa ENE 4.0 km/h 5.0 km/h 98 % 0.0 mm
02:42 -2.1 °C -2.3 °C 1032.1 hPa ENE 4.7 km/h 5.8 km/h 98 % 0.0 mm
02:47 -2.1 °C -2.3 °C 1032.1 hPa ENE 4.3 km/h 5.8 km/h 98 % 0.0 mm
02:52 -2.1 °C -2.3 °C 1032.1 hPa NE 5.0 km/h 5.8 km/h 98 % 0.0 mm
02:57 -2.1 °C -2.3 °C 1032.1 hPa ENE 5.5 km/h 6.4 km/h 98 % 0.0 mm
03:02 -2.1 °C -2.3 °C 1032.1 hPa NE 5.5 km/h 6.4 km/h 98 % 0.0 mm
03:07 -2.1 °C -2.3 °C 1033.1 hPa NE 5.0 km/h 6.8 km/h 98 % 0.0 mm
03:12 -2.1 °C -2.3 °C 1033.1 hPa ENE 6.1 km/h 7.2 km/h 98 % 0.0 mm
03:17 -2.1 °C -2.3 °C 1033.1 hPa ENE 5.8 km/h 7.9 km/h 98 % 0.0 mm
03:22 -2.1 °C -2.3 °C 1033.1 hPa East 5.0 km/h 7.9 km/h 98 % 0.0 mm
03:27 -2.2 °C -2.4 °C 1033.1 hPa NE 5.5 km/h 7.2 km/h 98 % 0.0 mm
03:32 -2.2 °C -2.4 °C 1033.1 hPa ENE 4.0 km/h 6.1 km/h 98 % 0.0 mm
03:37 -2.2 °C -2.4 °C 1033.1 hPa ENE 6.4 km/h 6.9 km/h 98 % 0.0 mm
03:42 -2.1 °C -2.3 °C 1033.1 hPa NE 6.1 km/h 9.0 km/h 98 % 0.0 mm
03:47 -2.1 °C -2.3 °C 1033.1 hPa NE 6.9 km/h 10.1 km/h 98 % 0.0 mm
03:52 -1.9 °C -2.2 °C 1033.1 hPa ENE 6.1 km/h 10.1 km/h 98 % 0.0 mm
03:57 -1.9 °C -2.1 °C 1033.1 hPa East 7.9 km/h 9.7 km/h 98 % 0.0 mm
04:02 -1.9 °C -2.1 °C 1033.1 hPa East 9.7 km/h 10.5 km/h 98 % 0.0 mm
04:07 -1.9 °C -2.1 °C 1033.1 hPa East 5.8 km/h 10.5 km/h 98 % 0.0 mm
04:12 -1.8 °C -2.1 °C 1033.1 hPa ENE 6.1 km/h 10.1 km/h 98 % 0.0 mm
04:17 -1.8 °C -2.1 °C 1033.1 hPa East 5.5 km/h 10.5 km/h 98 % 0.0 mm
04:22 -1.9 °C -2.1 °C 1033.1 hPa East 7.9 km/h 10.5 km/h 98 % 0.0 mm
04:27 -1.9 °C -2.1 °C 1033.1 hPa East 8.7 km/h 13.7 km/h 98 % 0.0 mm
04:32 -1.9 °C -2.1 °C 1033.1 hPa ESE 6.9 km/h 13.7 km/h 98 % 0.0 mm
04:37 -1.9 °C -2.1 °C 1033.1 hPa ESE 5.0 km/h 12.6 km/h 98 % 0.0 mm
04:42 -1.9 °C -2.1 °C 1033.1 hPa East 9.3 km/h 10.1 km/h 98 % 0.0 mm
04:47 -1.9 °C -2.1 °C 1033.1 hPa East 4.7 km/h 11.9 km/h 98 % 0.0 mm
04:52 -1.9 °C -2.1 °C 1033.1 hPa NE 5.0 km/h 11.9 km/h 98 % 0.0 mm
04:58 -1.9 °C -2.1 °C 1033.1 hPa ENE 10.1 km/h 11.6 km/h 98 % 0.0 mm
05:03 -1.9 °C -2.1 °C 1033.1 hPa East 5.0 km/h 11.6 km/h 98 % 0.0 mm
05:08 -1.9 °C -2.1 °C 1033.1 hPa ESE 6.1 km/h 9.7 km/h 98 % 0.0 mm
05:13 -1.9 °C -2.1 °C 1033.1 hPa SE 9.0 km/h 9.7 km/h 98 % 0.0 mm
05:18 -1.9 °C -2.1 °C 1033.1 hPa East 9.0 km/h 9.3 km/h 98 % 0.0 mm
05:23 -1.9 °C -2.1 °C 1033.1 hPa East 10.1 km/h 13.0 km/h 98 % 0.0 mm
05:28 -1.9 °C -2.2 °C 1033.1 hPa East 6.9 km/h 13.0 km/h 98 % 0.0 mm
05:33 -1.9 °C -2.2 °C 1033.1 hPa ESE 10.8 km/h 12.2 km/h 98 % 0.0 mm
05:38 -1.9 °C -2.2 °C 1033.1 hPa ESE 5.8 km/h 12.2 km/h 98 % 0.0 mm
05:43 -1.9 °C -2.2 °C 1033.1 hPa ENE 5.0 km/h 11.6 km/h 98 % 0.0 mm
05:48 -2.1 °C -2.3 °C 1033.1 hPa ENE 7.9 km/h 10.5 km/h 98 % 0.0 mm
05:53 -1.9 °C -2.2 °C 1033.1 hPa NE 6.9 km/h 10.5 km/h 98 % 0.0 mm
05:58 -2.1 °C -2.3 °C 1033.1 hPa East 9.7 km/h 10.5 km/h 98 % 0.0 mm
06:03 -2.1 °C -2.3 °C 1033.1 hPa ESE 7.6 km/h 10.5 km/h 98 % 0.0 mm
06:08 -2.1 °C -2.3 °C 1033.1 hPa East 4.7 km/h 10.5 km/h 98 % 0.0 mm
06:13 -2.1 °C -2.3 °C 1033.1 hPa ENE 6.9 km/h 10.8 km/h 98 % 0.0 mm
06:18 -1.9 °C -2.2 °C 1033.1 hPa East 9.0 km/h 12.2 km/h 98 % 0.0 mm
06:23 -2.1 °C -2.3 °C 1033.1 hPa ESE 5.8 km/h 12.6 km/h 98 % 0.0 mm
06:28 -2.2 °C -2.4 °C 1033.1 hPa East 6.4 km/h 12.6 km/h 98 % 0.0 mm
06:33 -2.3 °C -2.5 °C 1033.1 hPa East 6.9 km/h 10.8 km/h 98 % 0.0 mm
06:38 -2.3 °C -2.5 °C 1033.1 hPa East 5.8 km/h 9.3 km/h 98 % 0.0 mm
06:43 -2.3 °C -2.5 °C 1033.1 hPa East 7.9 km/h 10.8 km/h 98 % 0.0 mm
06:48 -2.3 °C -2.5 °C 1033.1 hPa East 5.0 km/h 10.8 km/h 98 % 0.0 mm
06:53 -2.3 °C -2.5 °C 1033.1 hPa SE 4.0 km/h 9.7 km/h 98 % 0.0 mm
06:58 -2.3 °C -2.5 °C 1033.1 hPa SE 2.6 km/h 9.7 km/h 98 % 0.0 mm
07:03 -2.3 °C -2.5 °C 1033.1 hPa East 5.0 km/h 7.9 km/h 98 % 0.0 mm
07:08 -2.3 °C -2.5 °C 1034.1 hPa SE 5.0 km/h 5.8 km/h 98 % 0.0 mm
07:13 -2.3 °C -2.5 °C 1034.1 hPa ESE 10.1 km/h 11.9 km/h 98 % 0.0 mm
07:18 -2.3 °C -2.5 °C 1034.1 hPa ENE 5.8 km/h 11.9 km/h 98 % 0.0 mm
07:23 -2.3 °C -2.5 °C 1034.1 hPa ENE 7.9 km/h 10.5 km/h 98 % 0.0 mm
07:28 -2.3 °C -2.5 °C 1034.1 hPa SE 5.5 km/h 10.5 km/h 98 % 0.0 mm
07:33 -2.3 °C -2.5 °C 1034.1 hPa ESE 7.2 km/h 10.1 km/h 98 % 0.0 mm
07:38 -2.3 °C -2.5 °C 1034.1 hPa SE 9.0 km/h 10.1 km/h 98 % 0.0 mm
07:43 -2.3 °C -2.5 °C 1034.1 hPa SE 2.1 km/h 9.7 km/h 98 % 0.0 mm
07:48 -2.3 °C -2.5 °C 1034.1 hPa SSE 6.4 km/h 9.0 km/h 98 % 0.0 mm
07:53 -2.3 °C -2.5 °C 1034.1 hPa ESE 5.0 km/h 7.6 km/h 98 % 0.0 mm
07:58 -2.3 °C -2.5 °C 1034.1 hPa ESE 8.7 km/h 9.7 km/h 98 % 0.0 mm
08:03 -2.3 °C -2.5 °C 1034.1 hPa East 3.5 km/h 9.7 km/h 98 % 0.0 mm
08:08 -2.3 °C -2.5 °C 1035.1 hPa ESE 9.3 km/h 10.5 km/h 98 % 0.0 mm
08:13 -2.3 °C -2.5 °C 1035.1 hPa SE 6.1 km/h 10.5 km/h 98 % 0.0 mm
08:18 -2.3 °C -2.5 °C 1035.1 hPa ESE 3.2 km/h 7.9 km/h 98 % 0.0 mm
08:23 -2.3 °C -2.5 °C 1035.1 hPa East 2.1 km/h 10.1 km/h 98 % 0.0 mm
08:28 -2.3 °C -2.5 °C 1035.1 hPa ESE 1.8 km/h 10.1 km/h 98 % 0.0 mm
08:33 -2.3 °C -2.5 °C 1035.1 hPa East 2.6 km/h 4.3 km/h 98 % 0.0 mm
08:38 -2.3 °C -2.5 °C 1035.1 hPa East 4.7 km/h 7.6 km/h 98 % 0.0 mm
08:43 -2.3 °C -2.5 °C 1035.1 hPa East 4.7 km/h 7.6 km/h 98 % 0.0 mm
08:48 -2.3 °C -2.5 °C 1035.1 hPa ENE 5.8 km/h 5.8 km/h 98 % 0.0 mm
08:53 -2.2 °C -2.4 °C 1035.1 hPa ESE 5.8 km/h 6.4 km/h 98 % 0.0 mm
08:58 -2.2 °C -2.4 °C 1035.1 hPa ENE 5.5 km/h 6.4 km/h 98 % 0.0 mm
09:03 -2.2 °C -2.4 °C 1035.1 hPa NE 5.5 km/h 6.9 km/h 98 % 0.0 mm
09:08 -2.1 °C -2.3 °C 1035.1 hPa NE 9.3 km/h 9.7 km/h 98 % 0.0 mm
09:13 -2.1 °C -2.3 °C 1035.1 hPa NE 5.8 km/h 10.5 km/h 98 % 0.0 mm
09:18 -2.1 °C -2.3 °C 1035.1 hPa East 5.5 km/h 12.6 km/h 98 % 0.0 mm
09:23 -2.2 °C -2.4 °C 1035.1 hPa East 7.9 km/h 12.6 km/h 98 % 0.0 mm
09:28 -2.2 °C -2.4 °C 1035.1 hPa ENE 5.8 km/h 10.1 km/h 98 % 0.0 mm
09:33 -2.3 °C -2.5 °C 1035.1 hPa East 6.9 km/h 10.5 km/h 98 % 0.0 mm
09:38 -2.3 °C -2.5 °C 1035.1 hPa ESE 5.5 km/h 10.5 km/h 98 % 0.0 mm
09:43 -2.2 °C -2.4 °C 1035.1 hPa ENE 9.7 km/h 11.6 km/h 98 % 0.0 mm
09:48 -2.2 °C -2.4 °C 1035.1 hPa NE 9.0 km/h 11.6 km/h 98 % 0.0 mm
09:53 -2.2 °C -2.4 °C 1035.1 hPa ESE 6.9 km/h 13.0 km/h 98 % 0.0 mm
09:58 -2.2 °C -2.4 °C 1035.1 hPa East 6.9 km/h 13.0 km/h 98 % 0.0 mm
10:03 -2.1 °C -2.3 °C 1035.1 hPa East 6.9 km/h 10.5 km/h 98 % 0.0 mm
10:08 -1.9 °C -2.1 °C 1035.1 hPa ESE 7.9 km/h 10.5 km/h 98 % 0.0 mm
10:13 -1.9 °C -2.1 °C 1035.1 hPa East 6.1 km/h 10.1 km/h 98 % 0.0 mm
10:18 -1.9 °C -2.1 °C 1035.1 hPa NE 5.5 km/h 9.7 km/h 98 % 0.0 mm
10:23 -1.9 °C -2.2 °C 1036.1 hPa East 5.8 km/h 7.9 km/h 98 % 0.0 mm
10:28 -1.9 °C -2.2 °C 1036.1 hPa ENE 5.0 km/h 9.3 km/h 98 % 0.0 mm
10:33 -1.9 °C -2.3 °C 1036.1 hPa ENE 6.4 km/h 9.3 km/h 97 % 0.0 mm
10:38 -1.7 °C -2.1 °C 1036.1 hPa East 9.0 km/h 10.1 km/h 97 % 0.0 mm
10:43 -1.6 °C -2.0 °C 1036.1 hPa East 5.8 km/h 10.1 km/h 97 % 0.0 mm
10:48 -1.4 °C -1.9 °C 1036.1 hPa East 10.1 km/h 10.1 km/h 97 % 0.0 mm
10:53 -1.4 °C -1.8 °C 1036.1 hPa ENE 6.9 km/h 10.1 km/h 97 % 0.0 mm
10:58 -1.4 °C -1.8 °C 1036.1 hPa ESE 8.7 km/h 11.6 km/h 97 % 0.0 mm
11:03 -1.4 °C -1.8 °C 1036.1 hPa East 6.9 km/h 11.9 km/h 97 % 0.0 mm
11:08 -1.3 °C -1.7 °C 1036.1 hPa NE 7.6 km/h 11.9 km/h 97 % 0.0 mm
11:13 -1.2 °C -1.6 °C 1036.1 hPa East 3.2 km/h 10.5 km/h 97 % 0.0 mm
11:18 -1.1 °C -1.5 °C 1036.1 hPa ENE 5.5 km/h 10.5 km/h 97 % 0.0 mm
11:23 -1.0 °C -1.4 °C 1037.1 hPa East 7.9 km/h 7.9 km/h 97 % 0.0 mm
11:28 -1.0 °C -1.4 °C 1037.1 hPa ESE 6.1 km/h 10.5 km/h 97 % 0.0 mm
11:33 -1.1 °C -1.5 °C 1037.1 hPa ENE 6.4 km/h 10.5 km/h 97 % 0.0 mm
11:38 -1.2 °C -1.7 °C 1037.1 hPa ENE 6.9 km/h 9.3 km/h 96 % 0.0 mm
11:43 -1.0 °C -1.6 °C 1037.1 hPa ENE 7.6 km/h 11.1 km/h 96 % 0.0 mm
11:48 -0.9 °C -1.4 °C 1037.1 hPa East 7.6 km/h 11.1 km/h 96 % 0.0 mm
11:53 -0.8 °C -1.3 °C 1036.1 hPa ENE 6.9 km/h 9.3 km/h 96 % 0.0 mm
11:58 -0.7 °C -1.2 °C 1036.1 hPa NE 5.8 km/h 9.3 km/h 96 % 0.0 mm
12:04 -0.7 °C -1.2 °C 1036.1 hPa East 6.1 km/h 9.0 km/h 96 % 0.0 mm
12:09 -0.3 °C -0.8 °C 1037.1 hPa ESE 6.9 km/h 9.7 km/h 96 % 0.0 mm
12:14 -0.3 °C -0.8 °C 1037.1 hPa East 5.5 km/h 10.1 km/h 96 % 0.0 mm
12:19 -0.1 °C -0.8 °C 1037.1 hPa East 5.8 km/h 11.6 km/h 95 % 0.0 mm
12:24 0.1 °C -0.6 °C 1036.1 hPa ESE 5.8 km/h 11.6 km/h 95 % 0.0 mm
12:29 0.1 °C -0.8 °C 1036.1 hPa ESE 6.1 km/h 9.7 km/h 94 % 0.0 mm
12:34 0.0 °C -1.0 °C 1036.1 hPa ESE 6.4 km/h 10.5 km/h 93 % 0.0 mm
12:39 0.2 °C -0.8 °C 1036.1 hPa SE 7.9 km/h 10.5 km/h 93 % 0.0 mm
12:44 0.4 °C -0.4 °C 1036.1 hPa ESE 5.5 km/h 8.7 km/h 94 % 0.0 mm
12:49 0.3 °C -0.7 °C 1036.1 hPa East 6.1 km/h 7.9 km/h 93 % 0.0 mm
12:54 0.8 °C -0.1 °C 1036.1 hPa ESE 5.8 km/h 7.9 km/h 94 % 0.0 mm
12:59 0.9 °C -0.1 °C 1036.1 hPa East 8.7 km/h 9.7 km/h 93 % 0.0 mm
13:04 0.7 °C -0.6 °C 1036.1 hPa ESE 7.6 km/h 10.8 km/h 91 % 0.0 mm
13:09 0.6 °C -0.9 °C 1036.1 hPa ESE 6.9 km/h 10.8 km/h 90 % 0.0 mm
13:14 0.7 °C -0.8 °C 1036.1 hPa SE 7.6 km/h 10.1 km/h 90 % 0.0 mm
13:19 0.9 °C -0.6 °C 1036.1 hPa ENE 6.1 km/h 9.7 km/h 90 % 0.0 mm
13:24 0.9 °C -0.6 °C 1036.1 hPa ESE 8.7 km/h 9.0 km/h 90 % 0.0 mm
13:29 0.9 °C -0.7 °C 1036.1 hPa ESE 6.9 km/h 9.7 km/h 89 % 0.0 mm
13:34 0.9 °C -0.7 °C 1036.1 hPa ESE 6.1 km/h 9.7 km/h 89 % 0.0 mm
13:39 0.9 °C -0.7 °C 1036.1 hPa East 5.0 km/h 9.0 km/h 89 % 0.0 mm
13:44 1.0 °C -0.8 °C 1036.1 hPa ENE 7.9 km/h 7.9 km/h 88 % 0.0 mm
13:49 0.9 °C -0.7 °C 1036.1 hPa NE 7.6 km/h 10.1 km/h 89 % 0.0 mm
13:54 0.9 °C -0.7 °C 1036.1 hPa East 5.0 km/h 10.1 km/h 89 % 0.0 mm
13:59 0.8 °C -0.8 °C 1036.1 hPa NE 6.9 km/h 9.7 km/h 89 % 0.0 mm
14:04 0.7 °C -1.1 °C 1036.1 hPa ENE 6.1 km/h 11.6 km/h 88 % 0.0 mm
14:09 0.6 °C -1.2 °C 1036.1 hPa ENE 6.1 km/h 11.6 km/h 88 % 0.0 mm
14:14 0.8 °C -1.0 °C 1036.1 hPa ESE 4.7 km/h 7.2 km/h 88 % 0.0 mm
14:19 0.8 °C -1.0 °C 1036.1 hPa ENE 6.9 km/h 9.3 km/h 88 % 0.0 mm
14:24 0.9 °C -0.9 °C 1036.1 hPa East 2.6 km/h 9.3 km/h 88 % 0.0 mm
14:29 1.0 °C -0.8 °C 1036.1 hPa NE 8.7 km/h 9.7 km/h 88 % 0.0 mm
14:34 1.0 °C -0.8 °C 1036.1 hPa ENE 9.0 km/h 9.7 km/h 88 % 0.0 mm
14:39 1.0 °C -0.9 °C 1035.1 hPa NE 5.5 km/h 10.1 km/h 87 % 0.0 mm
14:44 1.0 °C -0.9 °C 1035.1 hPa NE 8.7 km/h 10.5 km/h 87 % 0.0 mm
14:49 1.1 °C -0.8 °C 1035.1 hPa NE 6.9 km/h 10.5 km/h 87 % 0.0 mm
14:54 1.1 °C -1.0 °C 1036.1 hPa ENE 5.0 km/h 9.3 km/h 86 % 0.0 mm
14:59 1.1 °C -1.0 °C 1036.1 hPa NE 8.7 km/h 9.3 km/h 86 % 0.0 mm
15:04 1.0 °C -1.1 °C 1036.1 hPa ENE 6.9 km/h 9.3 km/h 86 % 0.0 mm
15:09 1.0 °C -1.1 °C 1035.1 hPa East 7.6 km/h 9.3 km/h 86 % 0.0 mm
15:14 0.9 °C -1.2 °C 1035.1 hPa NNE 9.0 km/h 10.1 km/h 86 % 0.0 mm
15:19 0.9 °C -1.2 °C 1035.1 hPa NE 6.1 km/h 10.1 km/h 86 % 0.0 mm
15:25 0.9 °C -1.2 °C 1035.1 hPa NE 7.9 km/h 10.1 km/h 86 % 0.0 mm
15:30 0.9 °C -1.2 °C 1035.1 hPa East 5.8 km/h 9.3 km/h 86 % 0.0 mm
15:34 0.9 °C -1.2 °C 1035.1 hPa NE 9.0 km/h 10.1 km/h 86 % 0.0 mm
15:40 0.9 °C -1.2 °C 1036.1 hPa NE 3.5 km/h 11.9 km/h 86 % 0.0 mm
15:44 0.9 °C -1.2 °C 1036.1 hPa East 6.9 km/h 11.9 km/h 86 % 0.0 mm
15:50 0.9 °C -1.2 °C 1036.1 hPa NE 6.1 km/h 10.1 km/h 86 % 0.0 mm
15:55 0.8 °C -1.4 °C 1036.1 hPa ENE 4.3 km/h 10.5 km/h 85 % 0.0 mm
16:00 0.8 °C -1.4 °C 1036.1 hPa East 7.9 km/h 10.5 km/h 85 % 0.0 mm
16:05 0.8 °C -1.4 °C 1036.1 hPa NE 9.7 km/h 9.7 km/h 85 % 0.0 mm
16:10 0.7 °C -1.6 °C 1036.1 hPa ENE 5.8 km/h 9.7 km/h 85 % 0.0 mm
16:14 0.7 °C -1.6 °C 1036.1 hPa NE 5.5 km/h 9.7 km/h 85 % 0.0 mm
16:19 0.6 °C -1.7 °C 1036.1 hPa ENE 6.4 km/h 9.3 km/h 85 % 0.0 mm
16:24 0.4 °C -1.8 °C 1036.1 hPa NE 5.0 km/h 9.3 km/h 85 % 0.0 mm
16:30 0.3 °C -2.1 °C 1036.1 hPa NE 6.1 km/h 9.0 km/h 84 % 0.0 mm
16:34 0.2 °C -2.1 °C 1036.1 hPa NE 5.8 km/h 6.9 km/h 85 % 0.0 mm
16:40 0.1 °C -2.1 °C 1036.1 hPa NE 5.5 km/h 6.9 km/h 85 % 0.0 mm
16:44 0.0 °C -2.2 °C 1036.1 hPa NE 4.3 km/h 6.9 km/h 85 % 0.0 mm
16:49 -0.2 °C -2.4 °C 1036.1 hPa NE 6.4 km/h 9.0 km/h 85 % 0.0 mm
16:54 -0.3 °C -2.3 °C 1036.1 hPa NNE 4.7 km/h 9.0 km/h 86 % 0.0 mm
17:00 -0.4 °C -2.4 °C 1036.1 hPa NE 5.5 km/h 8.7 km/h 86 % 0.0 mm
17:05 -0.5 °C -2.4 °C 1036.1 hPa North 6.1 km/h 10.1 km/h 87 % 0.0 mm
17:10 -0.6 °C -2.5 °C 1037.1 hPa NNE 6.4 km/h 10.1 km/h 87 % 0.0 mm
17:15 -0.7 °C -2.6 °C 1037.1 hPa NNE 5.8 km/h 8.7 km/h 87 % 0.0 mm
17:20 -0.8 °C -2.7 °C 1037.1 hPa NE 6.9 km/h 8.7 km/h 87 % 0.0 mm
17:25 -0.8 °C -2.5 °C 1037.1 hPa NE 6.4 km/h 9.3 km/h 88 % 0.0 mm
17:30 -0.9 °C -2.6 °C 1037.1 hPa NE 6.4 km/h 9.3 km/h 88 % 0.0 mm
17:35 -1.0 °C -2.6 °C 1037.1 hPa NNE 6.4 km/h 7.9 km/h 89 % 0.0 mm
17:40 -1.0 °C -2.6 °C 1037.1 hPa NE 4.7 km/h 9.7 km/h 89 % 0.0 mm
17:45 -1.0 °C -2.6 °C 1037.1 hPa NNE 6.4 km/h 9.7 km/h 89 % 0.0 mm
17:50 -1.0 °C -2.6 °C 1037.1 hPa NNE 6.1 km/h 9.0 km/h 89 % 0.0 mm
17:55 -1.1 °C -2.7 °C 1037.1 hPa NNE 6.1 km/h 9.0 km/h 89 % 0.0 mm
18:00 -1.2 °C -2.6 °C 1037.1 hPa NNE 5.8 km/h 7.9 km/h 90 % 0.0 mm
18:05 -1.2 °C -2.6 °C 1037.1 hPa ENE 7.6 km/h 8.7 km/h 90 % 0.0 mm
18:10 -1.3 °C -2.7 °C 1037.1 hPa NE 6.4 km/h 8.7 km/h 90 % 0.0 mm
18:15 -1.4 °C -2.8 °C 1037.1 hPa NE 7.9 km/h 8.7 km/h 90 % 0.0 mm
18:20 -1.4 °C -2.8 °C 1037.1 hPa NNE 6.4 km/h 9.0 km/h 90 % 0.0 mm
18:25 -1.4 °C -2.8 °C 1037.1 hPa NE 7.2 km/h 9.0 km/h 90 % 0.0 mm
18:30 -1.4 °C -2.7 °C 1037.1 hPa NNE 4.3 km/h 8.7 km/h 91 % 0.0 mm
18:35 -1.4 °C -2.7 °C 1037.1 hPa NNE 6.1 km/h 11.9 km/h 91 % 0.0 mm
18:40 -1.4 °C -2.7 °C 1037.1 hPa NE 5.5 km/h 11.9 km/h 91 % 0.0 mm
18:45 -1.4 °C -2.7 °C 1037.1 hPa NE 7.9 km/h 9.7 km/h 91 % 0.0 mm
18:50 -1.4 °C -2.7 °C 1037.1 hPa NE 7.9 km/h 9.7 km/h 91 % 0.0 mm
18:55 -1.4 °C -2.5 °C 1037.1 hPa ENE 6.4 km/h 9.7 km/h 92 % 0.0 mm
19:00 -1.4 °C -2.5 °C 1037.1 hPa NE 5.8 km/h 9.3 km/h 92 % 0.0 mm
19:05 -1.4 °C -2.6 °C 1037.1 hPa NE 7.9 km/h 9.3 km/h 92 % 0.0 mm
19:10 -1.4 °C -2.6 °C 1038.1 hPa NE 6.4 km/h 9.3 km/h 92 % 0.0 mm
19:15 -1.6 °C -2.7 °C 1038.1 hPa NNE 9.0 km/h 9.3 km/h 92 % 0.0 mm
19:20 -1.7 °C -2.8 °C 1038.1 hPa NE 6.9 km/h 9.3 km/h 92 % 0.0 mm
19:25 -1.8 °C -2.9 °C 1037.1 hPa NE 6.9 km/h 9.7 km/h 92 % 0.0 mm
19:30 -1.8 °C -2.9 °C 1037.1 hPa ENE 6.9 km/h 9.7 km/h 92 % 0.0 mm
19:35 -1.8 °C -2.9 °C 1037.1 hPa ENE 5.8 km/h 7.6 km/h 92 % 0.0 mm
19:40 -1.8 °C -2.9 °C 1037.1 hPa ENE 6.9 km/h 7.6 km/h 92 % 0.0 mm
19:45 -1.8 °C -2.9 °C 1037.1 hPa ENE 4.7 km/h 6.9 km/h 92 % 0.0 mm
19:50 -1.9 °C -3.0 °C 1037.1 hPa NE 5.5 km/h 6.9 km/h 92 % 0.0 mm
19:55 -1.9 °C -3.0 °C 1037.1 hPa ENE 6.1 km/h 6.9 km/h 92 % 0.0 mm
20:00 -1.9 °C -3.0 °C 1037.1 hPa NE 5.0 km/h 6.4 km/h 92 % 0.0 mm
20:05 -1.9 °C -3.0 °C 1037.1 hPa NE 6.1 km/h 6.4 km/h 92 % 0.0 mm
20:10 -1.9 °C -2.9 °C 1037.1 hPa NE 6.4 km/h 6.4 km/h 93 % 0.0 mm
20:15 -1.9 °C -2.9 °C 1037.1 hPa NE 5.8 km/h 7.6 km/h 93 % 0.0 mm
20:20 -1.9 °C -2.9 °C 1037.1 hPa NE 6.1 km/h 7.6 km/h 93 % 0.0 mm
20:25 -2.1 °C -3.1 °C 1037.1 hPa NE 4.7 km/h 7.6 km/h 93 % 0.0 mm
20:30 -2.2 °C -3.1 °C 1037.1 hPa NE 5.8 km/h 6.9 km/h 93 % 0.0 mm
20:35 -2.1 °C -3.1 °C 1037.1 hPa NE 6.4 km/h 6.4 km/h 93 % 0.0 mm
20:40 -2.1 °C -3.1 °C 1037.1 hPa NNE 6.1 km/h 7.9 km/h 93 % 0.0 mm
20:45 -2.1 °C -2.9 °C 1037.1 hPa NE 6.9 km/h 8.7 km/h 94 % 0.0 mm
20:50 -2.1 °C -2.9 °C 1037.1 hPa NE 7.6 km/h 9.3 km/h 94 % 0.0 mm
20:55 -2.2 °C -3.0 °C 1037.1 hPa NE 6.1 km/h 9.3 km/h 94 % 0.0 mm
21:00 -2.2 °C -3.0 °C 1037.1 hPa ENE 5.8 km/h 7.6 km/h 94 % 0.0 mm
21:05 -2.2 °C -3.0 °C 1037.1 hPa NE 7.9 km/h 7.9 km/h 94 % 0.0 mm
21:10 -2.1 °C -2.9 °C 1036.1 hPa ENE 6.9 km/h 9.0 km/h 94 % 0.0 mm
21:15 -2.1 °C -2.9 °C 1036.1 hPa NE 7.9 km/h 9.3 km/h 94 % 0.0 mm
21:20 -2.1 °C -2.9 °C 1036.1 hPa NNE 6.1 km/h 9.3 km/h 94 % 0.0 mm
21:25 -2.2 °C -3.0 °C 1037.1 hPa NNE 6.4 km/h 9.3 km/h 94 % 0.0 mm
21:30 -2.2 °C -3.0 °C 1037.1 hPa NE 8.7 km/h 9.3 km/h 94 % 0.0 mm
21:35 -2.2 °C -3.0 °C 1037.1 hPa North 6.4 km/h 9.3 km/h 94 % 0.0 mm
21:40 -2.3 °C -3.1 °C 1037.1 hPa NNE 9.0 km/h 9.7 km/h 94 % 0.0 mm
21:45 -2.3 °C -3.1 °C 1037.1 hPa NNE 9.0 km/h 9.7 km/h 94 % 0.0 mm
21:50 -2.3 °C -3.1 °C 1037.1 hPa NNE 7.9 km/h 10.5 km/h 94 % 0.0 mm
21:55 -2.3 °C -3.1 °C 1037.1 hPa NE 9.3 km/h 10.5 km/h 94 % 0.0 mm
22:00 -2.3 °C -3.1 °C 1037.1 hPa NE 7.9 km/h 10.1 km/h 94 % 0.0 mm
22:05 -2.3 °C -3.1 °C 1037.1 hPa NE 5.8 km/h 10.5 km/h 94 % 0.0 mm
22:10 -2.2 °C -2.8 °C 1037.1 hPa East 7.2 km/h 12.2 km/h 95 % 0.0 mm
22:15 -2.2 °C -2.8 °C 1037.1 hPa ENE 9.0 km/h 12.2 km/h 95 % 0.0 mm
22:20 -2.3 °C -2.9 °C 1037.1 hPa NE 7.9 km/h 9.7 km/h 95 % 0.0 mm
22:25 -2.3 °C -2.9 °C 1036.1 hPa ENE 9.7 km/h 10.5 km/h 95 % 0.0 mm
22:30 -2.3 °C -2.9 °C 1036.1 hPa NE 9.3 km/h 10.5 km/h 95 % 0.0 mm
22:35 -2.3 °C -2.9 °C 1036.1 hPa NE 10.5 km/h 10.5 km/h 95 % 0.0 mm
22:40 -2.3 °C -2.9 °C 1036.1 hPa NNE 9.0 km/h 12.6 km/h 95 % 0.0 mm
22:45 -2.3 °C -2.9 °C 1036.1 hPa NNE 9.3 km/h 12.6 km/h 95 % 0.0 mm
22:50 -2.3 °C -2.9 °C 1036.1 hPa NE 8.7 km/h 11.9 km/h 95 % 0.0 mm
22:55 -2.3 °C -3.1 °C 1037.1 hPa NNE 10.1 km/h 11.9 km/h 95 % 0.0 mm
23:00 -2.3 °C -3.1 °C 1037.1 hPa NE 8.7 km/h 11.6 km/h 95 % 0.0 mm
23:05 -2.3 °C -3.1 °C 1037.1 hPa NE 9.7 km/h 11.6 km/h 95 % 0.0 mm
23:10 -2.3 °C -2.9 °C 1037.1 hPa ENE 9.0 km/h 10.5 km/h 95 % 0.0 mm
23:15 -2.3 °C -2.9 °C 1037.1 hPa ENE 9.3 km/h 12.2 km/h 95 % 0.0 mm
23:20 -2.3 °C -2.9 °C 1037.1 hPa NE 6.9 km/h 12.2 km/h 95 % 0.0 mm
23:25 -2.3 °C -2.9 °C 1037.1 hPa NE 7.9 km/h 10.5 km/h 95 % 0.0 mm
23:30 -2.3 °C -3.1 °C 1037.1 hPa NE 10.1 km/h 12.2 km/h 95 % 0.0 mm
23:35 -2.3 °C -3.1 °C 1037.1 hPa ENE 7.9 km/h 12.2 km/h 95 % 0.0 mm
23:40 -2.3 °C -3.1 °C 1037.1 hPa ENE 8.7 km/h 10.5 km/h 95 % 0.0 mm
23:45 -2.3 °C -3.1 °C 1037.1 hPa ENE 6.9 km/h 10.5 km/h 95 % 0.0 mm
23:50 -2.3 °C -3.1 °C 1037.1 hPa ENE 6.4 km/h 9.3 km/h 95 % 0.0 mm
23:55 -2.3 °C -3.1 °C 1037.1 hPa ENE 6.9 km/h 9.7 km/h 95 % 0.0 mm
Le Gheer Warneton
Courtoisie de Weather Underground - 2.5 mb

Mise a jour : 18/12/2017 04:13:12
Généré par Cumulus 1.9.4 (1099)